Terug naar catalogus

COSMOS 1823 DEB

ActiefLEO
NORAD 29360·DEBRIS·🇷🇺 Russia

Gelanceerd Feb 20, 1987 vanaf Plesetsk Cosmodrome

Loading…

Volgende Passages (komende 24 uur)

TLE

VersSource: Space-Track

Epoch: Sep 13, 2026, 03:17 UTC

1 29360U 87020EB  26256.13696696  .00000312  00000-0  24550-2 0  9998
2 29360  73.7077 141.7778 0063762  84.9238  67.1872 12.39628687156146

Volg COSMOS 1823 DEB in realtime met AllMySat

Download on the App Store